Temperature
7 5 5 5 6 6 6 6 6 7 7 7 6 6 7 8 8 8 8 8 9 9 9 9 9 9 9 9 9 9 10 10 10 10 10 10 10 10 10 10 11 10 10 10
5 5 6 6 6 6 6 6 6 6 7 7 6 6 6 7 7 8 8 8 8 8 9 9 9 9 9 9 9 9 9 9 9 9 10 10 10 10 10 10 10 10 10 10
5 6 7 7 6 6 6 6 6 6 6 6 6 6 6 7 7 8 8 8 8 8 8 8 8 8 8 8 9 9 9 9 9 9 9 9 9 9 9 9 9 9 9 9
5 6 7 6 6 6 6 6 6 6 5 4 5 5 6 6 6 6 7 7 8 8 8 8 8 8 8 8 8 8 9 9 8 8 8 9 9 9 9 9 9 9 9 9
5 6 6 6 6 6 5 6 6 5 5 4 5 4 5 5 6 6 6 7 7 7 7 7 7 7 7 8 8 8 8 8 8 8 8 8 8 8 8 8 8 8 8 8
5 6 6 6 6 6 5 5 4 4 3 4 4 4 5 5 6 6 6 7 7 7 7 7 7 7 7 7 7 7 8 8 8 8 8 8 8 7 8 8 8 8 8 8
5 5 6 6 5 5 5 4 4 4 3 4 4 4 5 5 6 6 6 6 7 7 7 7 7 7 7 7 7 7 7 7 7 7 7 7 7 7 7 7 7 7 7 7
4 5 5 5 5 4 4 4 4 5 4 3 4 4 5 5 6 6 6 6 6 6 6 6 6 6 6 6 6 6 6 6 7 7 7 7 7 7 6 7 7 7 7 7
4 4 4 5 5 5 4 4 4 3 2 3 3 3 4 5 5 5 5 5 6 6 6 6 6 6 6 6 6 6 6 6 6 6 6 6 6 6 6 6 6 6 6 6
3 3 4 4 5 5 4 3 2 3 3 4 4 3 4 5 5 5 4 4 5 5 5 5 5 5 5 5 5 5 6 6 6 6 6 6 6 6 6 6 6 6 6 6
3 3 3 3 3 3 4 3 2 2 2 3 3 4 5 4 4 4 4 5 5 5 5 5 5 5 5 5 5 5 5 5 5 5 5 6 5 5 5 5 6 6 6 6
2 1 1 2 2 3 3 3 2 3 2 1 1 4 5 4 4 4 4 5 5 5 5 5 5 4 5 5 5 5 5 5 5 5 5 5 5 5 5 5 5 5 5 5
2 1 2 3 3 2 2 2 2 1 1 1 2 4 4 3 3 4 4 4 4 4 4 4 4 4 4 4 4 4 4 4 4 4 4 4 4 4 4 4 5 5 5 5
2 0 2 3 3 2 1 2 2 1 1 1 1 3 4 3 3 3 4 4 4 4 4 4 4 4 3 3 4 4 4 4 4 4 4 4 4 4 4 4 4 4 5 5
1 0 -0 0 1 1 1 1 1 1 1 1 2 2 3 3 2 3 3 3 3 3 3 3 3 3 3 3 3 3 3 3 3 3 3 3 3 3 4 4 4 4 4 4
-1 -0 -1 0 1 1 1 1 1 1 2 1 2 2 3 3 3 3 3 3 2 3 3 2 2 2 2 2 2 3 3 3 3 3 3 3 3 3 3 3 4 4 4 4
-2 -1 -0 -0 -0 0 1 1 1 1 1 1 2 2 2 1 1 2 2 2 2 2 2 2 2 2 2 2 2 2 3 3 3 3 3 3 3 3 3 3 3 3 3 3
-2 -2 -2 -1 -1 1 3 2 1 1 1 1 1 1 1 2 2 3 3 3 2 2 2 2 2 2 2 2 2 2 2 2 2 2 2 2 2 2 2 2 2 2 2 2
-2 -2 -2 -2 -1 -0 2 2 1 1 1 1 1 1 1 1 1 2 3 3 3 2 2 2 2 2 2 1 1 1 2 2 2 2 2 2 2 2 2 2 2 2 2 2
-2 -2 -2 -2 -0 1 3 1 1 1 1 1 0 0 0 0 -0 1 2 2 2 2 2 1 1 1 1 1 1 1 1 1 1 1 1 1 1 1 1 1 1 1 1 1
-2 -3 -3 -2 -2 -0 1 1 1 1 2 1 1 1 1 -0 0 1 1 1 1 1 1 1 1 1 1 1 1 1 0 0 0 0 0 0 0 0 0 0 0 -0 0 0
-2 -3 -3 -3 -2 0 0 -0 0 1 2 1 1 1 1 1 1 1 1 1 1 1 1 1 0 0 0 0 0 0 -0 -0 -0 -0 -0 -0 -0 -1 -1 -0 -1 -1 -1 -1
-3 -2 -2 -1 0 1 1 1 2 2 1 1 1 1 0 -0 -0 -0 0 0 0 0 -0 -0 -0 0 -0 -0 -0 -0 -0 -1 -1 -1 -1 -1 -1 -1 -1 -1 -1 -1 -1 -1
-3 -3 -3 -3 -2 -1 0 1 1 2 1 1 1 0 0 -0 -0 -0 -1 -0 -1 -1 -1 -1 -0 -0 -1 -1 -1 -1 -1 -1 -1 -1 -1 -1 -2 -2 -2 -2 -2 -2 -2 -2
-2 -3 -3 -2 -2 -1 1 1 1 1 1 0 0 -0 -0 -0 -1 -1 -1 -1 -1 -1 -1 -1 -1 -1 -1 -1 -1 -1 -1 -2 -2 -2 -2 -2 -2 -2 -2 -2 -2 -2 -2 -3
-3 -3 -3 -1 -1 -1 0 1 1 0 0 -0 -0 -0 -1 -1 -1 -1 -1 -1 -1 -1 -2 -2 -2 -2 -2 -2 -2 -2 -2 -2 -2 -2 -2 -3 -3 -3 -3 -3 -3 -3 -3 -3
Wind_Speed
2 3 3 5 5 4 4 3 5 5 3 3 7 11 12 7 6 6 5 5 5 5 5 4 3 2 2 1 1 2 2 2 2 2 2 2 3 3 3 3 4 5 5 5
3 2 5 3 3 2 2 3 4 5 2 3 6 11 10 7 6 6 6 6 5 4 4 3 2 2 2 2 2 3 3 3 3 3 3 3 3 3 4 3 4 5 5 5
5 3 3 3 2 2 3 4 4 4 5 3 4 8 6 4 4 4 5 5 4 4 4 4 3 2 2 2 3 3 4 4 4 4 3 1 1 1 2 3 4 4 5 5
2 3 2 3 3 3 4 4 4 3 2 4 0 5 6 4 4 4 5 4 4 4 4 4 3 3 3 4 4 4 4 4 5 4 3 4 4 4 5 4 4 4 4 5
2 1 2 3 4 3 4 2 2 2 2 3 2 3 8 3 5 5 5 4 4 4 4 4 4 4 4 4 4 4 4 5 5 4 4 5 4 4 3 3 3 4 4 4
2 1 2 3 1 2 1 2 3 2 2 4 5 5 7 5 6 4 4 4 4 3 3 4 3 3 3 3 3 3 4 5 5 5 5 5 6 5 4 4 4 4 4 4
2 2 2 1 1 0 2 3 3 3 2 6 3 4 9 7 5 5 4 4 4 3 3 3 3 3 3 3 3 3 4 6 5 5 5 6 6 6 6 6 6 5 4 4
1 4 3 1 3 4 4 5 5 4 5 5 2 6 8 5 3 2 2 2 2 2 3 3 3 4 4 4 4 4 5 6 6 5 6 5 6 5 5 6 5 6 6 6
4 4 1 1 2 4 4 4 4 3 1 3 6 6 7 3 2 2 2 3 3 3 3 4 4 4 4 4 5 5 6 6 6 6 5 5 5 5 5 5 5 5 5 5
4 2 3 2 0 1 3 4 4 3 3 5 6 6 5 5 4 3 2 3 4 5 4 4 4 4 5 5 5 5 5 6 6 5 5 5 5 5 5 5 6 6 5 5
2 3 3 2 4 5 3 3 3 3 4 4 5 7 5 6 4 3 4 5 5 6 6 5 5 5 6 6 5 5 5 5 5 5 5 5 5 5 5 5 6 6 5 5
2 3 3 6 4 2 3 5 6 4 5 4 4 9 4 3 3 3 5 6 6 6 6 6 6 6 6 6 5 5 5 5 5 5 5 5 5 5 5 5 6 5 5 5
3 4 1 4 2 1 2 4 4 3 3 4 5 9 3 2 4 5 5 7 7 6 7 7 6 6 6 6 6 5 5 5 5 5 5 5 5 5 6 6 6 5 5 5
2 3 5 7 5 3 4 5 5 5 5 6 10 12 11 8 8 8 8 7 7 7 7 7 7 7 6 6 6 5 5 4 4 4 5 5 5 6 6 6 6 5 5 5
3 3 4 6 7 5 8 9 8 10 10 10 10 11 14 10 8 8 8 7 7 7 7 8 8 8 7 6 6 5 4 4 4 4 4 5 5 5 5 5 5 4 4 5
2 2 2 5 5 6 9 11 12 12 10 12 13 15 12 8 5 6 7 7 7 8 8 8 9 8 7 6 6 5 4 4 3 4 4 4 4 4 4 4 4 3 4 4
3 4 1 5 5 5 9 10 11 8 8 9 12 12 8 7 7 7 7 7 8 8 8 8 8 8 7 6 6 5 4 3 3 3 3 3 4 4 4 3 2 3 3 3
5 4 3 2 2 7 7 3 7 8 8 9 8 8 7 9 9 8 6 5 7 8 7 7 7 7 7 5 5 5 4 3 3 3 3 3 3 4 3 3 3 3 3 3
6 6 3 2 4 9 8 3 4 5 7 7 9 10 7 6 5 5 4 4 6 7 7 6 6 6 5 5 4 4 4 3 3 3 3 3 3 3 3 3 3 3 2 2
3 4 4 4 4 7 6 2 1 2 6 5 6 8 6 2 3 6 5 5 7 6 5 5 5 5 4 5 4 3 4 3 4 4 4 3 3 3 3 3 3 2 2 2
3 3 6 6 7 9 6 2 3 3 6 3 4 5 5 5 6 6 6 6 5 5 5 5 4 4 4 4 3 3 4 4 4 4 3 3 3 2 3 2 2 1 1 1
8 7 7 6 6 9 3 4 5 6 3 2 3 3 4 5 5 5 5 5 5 5 5 4 4 4 4 4 3 3 4 5 4 3 3 3 3 2 2 1 1 1 1 1
7 8 6 9 9 4 4 5 4 2 3 3 3 4 3 4 5 5 5 5 4 4 4 4 4 4 5 4 3 4 5 4 4 3 3 3 3 3 2 1 1 1 1 1
5 3 4 6 8 6 5 5 5 4 4 4 4 4 3 4 4 4 4 4 4 4 4 4 4 4 5 5 4 4 4 3 3 3 3 3 3 3 3 2 2 2 1 1
5 5 4 7 7 5 5 5 6 5 4 4 3 3 3 3 4 4 4 4 4 4 4 3 4 4 5 5 5 4 4 3 3 3 3 3 3 3 3 3 3 3 2 2
5 6 6 8 6 5 4 3 3 3 4 4 4 4 3 3 4 4 4 4 3 4 4 4 4 5 5 5 4 4 3 3 2 3 3 3 3 3 3 3 4 5 3 3
Wind_Direction
82 93 184 205 197 197 189 206 251 253 264 255 250 266 274 270 256 255 254 254 259 257 262 262 236 225 218 214 209 233 237 253 234 243 232 228 236 229 229 236 223 210 216 210
75 227 223 196 190 197 212 240 268 287 293 266 268 275 272 256 239 235 236 245 253 263 282 286 270 244 234 231 232 237 236 245 242 235 237 225 229 231 231 246 236 217 216 217
178 219 201 181 188 204 243 217 242 266 324 326 312 298 276 264 254 257 243 233 237 241 257 270 271 262 240 241 244 258 250 249 250 243 232 252 236 253 240 239 229 229 224 222
207 251 186 176 210 188 250 227 230 263 330 293 315 289 279 271 285 265 261 245 240 248 255 259 263 271 255 248 242 247 255 257 254 242 222 227 229 241 242 228 227 228 229 226
228 206 178 208 225 190 222 243 229 241 220 289 252 236 279 283 268 266 262 246 237 242 252 260 258 256 251 248 246 250 257 261 257 243 229 228 236 240 251 236 223 226 230 232
248 252 196 210 243 194 212 14 29 42 82 272 232 205 275 248 241 257 264 247 242 247 257 263 267 273 274 269 266 262 262 265 255 243 237 231 234 239 240 241 230 232 234 230
313 284 249 155 123 350 85 91 24 351 330 254 232 210 251 254 243 233 245 254 254 245 244 261 277 286 295 294 284 279 272 270 259 246 242 236 234 230 229 232 232 232 235 236
191 270 244 199 186 189 201 161 167 212 239 280 280 234 252 256 256 242 235 260 274 277 268 269 264 262 269 275 279 279 278 268 260 250 250 246 238 233 237 237 236 232 233 232
183 249 319 232 198 162 160 195 181 156 236 277 269 276 291 271 303 325 340 344 321 303 295 291 285 279 277 276 272 268 271 270 262 253 251 250 242 239 243 244 239 242 244 238
164 238 284 303 92 201 168 151 119 153 204 260 280 267 248 261 277 299 311 310 309 309 307 303 298 291 283 275 272 268 266 258 252 248 245 249 247 247 248 244 243 245 245 238
140 176 296 330 204 203 170 168 156 160 185 199 261 268 230 223 232 245 263 275 285 296 300 299 296 292 288 285 279 276 272 265 261 254 248 249 253 254 255 247 246 245 243 238
155 145 247 255 256 238 203 194 169 187 233 208 223 268 261 212 243 256 275 286 289 290 297 295 293 293 295 293 288 281 270 260 257 253 250 250 255 258 256 250 251 244 238 234
144 134 339 332 328 307 232 216 191 173 174 200 219 261 299 315 300 294 289 295 298 303 307 307 302 298 295 293 291 287 274 261 262 256 252 252 255 255 256 252 253 245 235 236
116 160 194 216 229 203 240 236 207 184 206 227 231 255 281 286 286 289 287 287 289 296 299 305 307 302 295 293 291 286 284 270 268 263 257 256 256 254 253 251 249 242 231 231
118 208 237 257 265 251 242 241 225 219 218 224 245 250 265 268 266 272 277 283 294 301 304 305 305 305 298 295 292 287 283 276 267 265 267 266 267 265 260 256 249 240 233 236
128 195 258 277 270 266 265 251 234 235 235 240 257 266 266 277 277 275 276 281 286 290 294 297 301 303 296 288 287 288 289 282 267 259 268 275 275 272 266 255 246 246 242 239
164 159 200 269 301 316 272 238 214 221 222 213 237 252 279 287 279 269 269 269 270 280 287 291 293 294 296 294 289 288 284 286 277 271 279 278 270 272 270 261 248 247 251 244
162 157 177 263 347 252 248 212 201 219 242 227 239 261 261 261 273 271 257 251 271 286 287 289 292 298 303 301 301 300 301 304 301 299 296 295 280 273 276 272 259 256 254 247
177 165 171 187 253 276 287 246 186 210 262 232 239 259 274 294 308 289 268 279 274 279 280 282 288 294 300 305 305 305 308 311 315 305 301 298 284 268 274 271 270 273 266 260
146 152 165 182 221 249 258 253 202 137 274 253 231 251 268 313 297 283 302 305 303 305 302 300 300 304 304 308 316 311 311 310 301 304 305 301 293 272 269 264 266 273 263 259
155 177 199 206 232 262 260 244 118 180 255 278 241 245 234 222 239 279 302 303 304 310 313 318 318 314 308 313 325 322 319 308 306 312 314 309 302 288 271 268 270 272 273 270
180 183 200 186 215 252 228 148 186 229 267 263 261 250 242 250 271 290 297 303 315 322 326 329 328 322 323 327 332 326 316 315 326 329 331 332 330 314 299 287 321 313 268 282
202 196 194 199 220 248 190 203 229 223 248 257 258 263 248 263 277 288 298 310 316 317 318 321 320 323 331 334 334 321 320 330 339 343 339 338 341 339 334 330 336 358 353 288
246 207 205 244 259 254 246 253 262 244 246 263 266 267 245 260 274 287 296 307 314 315 315 320 326 328 328 332 331 320 326 340 349 346 341 348 355 348 352 353 350 344 330 319
227 190 220 249 269 293 280 254 259 264 269 279 283 274 257 254 276 278 288 298 304 309 314 321 319 315 316 326 330 333 339 351 356 349 349 356 359 356 360 359 353 340 321 283
204 194 204 240 243 221 262 280 257 255 267 267 274 285 281 252 260 272 280 290 299 308 316 321 320 318 319 328 330 335 341 352 355 348 351 352 350 352 354 355 358 8 353 350
Height
1509 1514 1517 1515 1515 1516 1517 1519 1519 1515 1511 1512 1511 1507 1502 1500 1499 1498 1497 1496 1496 1495 1495 1495 1495 1494 1495 1495 1495 1495 1495 1495 1496 1496 1495 1495 1496 1497 1498 1499 1500 1501 1502 1502
1513 1515 1513 1512 1513 1515 1516 1519 1519 1515 1511 1511 1510 1505 1499 1496 1495 1494 1493 1493 1493 1492 1492 1492 1491 1491 1491 1491 1491 1492 1492 1492 1492 1492 1491 1491 1492 1492 1493 1495 1495 1496 1497 1498
1512 1512 1510 1511 1513 1515 1515 1518 1517 1516 1513 1510 1511 1505 1498 1493 1492 1491 1491 1490 1490 1490 1489 1489 1488 1488 1488 1488 1487 1488 1488 1488 1488 1488 1487 1487 1488 1488 1489 1489 1490 1491 1492 1493
1512 1510 1510 1511 1512 1513 1515 1513 1514 1514 1518 1519 1515 1516 1499 1494 1492 1489 1487 1487 1487 1487 1486 1486 1485 1485 1485 1485 1485 1485 1484 1484 1484 1483 1482 1482 1482 1482 1482 1483 1484 1485 1487 1488
1511 1510 1510 1511 1510 1511 1513 1512 1513 1514 1517 1520 1516 1518 1502 1495 1491 1487 1485 1484 1484 1484 1484 1483 1482 1482 1482 1482 1481 1480 1480 1480 1479 1478 1478 1478 1478 1478 1478 1479 1479 1480 1481 1482
1510 1509 1509 1509 1509 1510 1511 1513 1515 1518 1521 1522 1514 1516 1503 1494 1487 1485 1483 1482 1481 1481 1481 1480 1480 1479 1478 1478 1477 1476 1475 1475 1475 1474 1474 1473 1473 1473 1473 1474 1474 1475 1475 1476
1511 1509 1508 1508 1510 1511 1513 1519 1526 1525 1529 1520 1510 1511 1500 1486 1483 1482 1481 1480 1479 1479 1478 1477 1476 1475 1474 1473 1473 1472 1471 1470 1469 1469 1469 1469 1469 1468 1468 1468 1469 1469 1469 1469
1513 1513 1508 1508 1508 1511 1513 1515 1523 1525 1525 1519 1510 1507 1492 1482 1481 1480 1479 1478 1477 1476 1475 1474 1473 1472 1471 1470 1469 1468 1466 1465 1464 1464 1464 1464 1465 1464 1464 1464 1464 1464 1464 1464
1513 1511 1508 1507 1507 1508 1511 1514 1514 1523 1525 1524 1511 1502 1489 1480 1479 1478 1478 1477 1475 1474 1473 1471 1470 1469 1467 1466 1464 1463 1461 1460 1460 1459 1459 1459 1460 1459 1459 1459 1459 1459 1459 1459
1510 1513 1510 1508 1507 1507 1509 1511 1518 1521 1521 1518 1509 1503 1491 1482 1479 1478 1477 1476 1474 1473 1471 1469 1467 1465 1463 1462 1460 1459 1457 1456 1455 1455 1455 1454 1454 1454 1454 1454 1453 1454 1454 1454
1509 1514 1513 1510 1509 1509 1510 1512 1514 1520 1520 1518 1513 1496 1480 1478 1477 1476 1475 1474 1473 1471 1468 1466 1464 1462 1459 1457 1455 1453 1452 1450 1450 1449 1449 1449 1449 1449 1449 1448 1448 1448 1448 1449
1508 1514 1516 1511 1507 1507 1507 1507 1512 1516 1518 1519 1517 1497 1474 1475 1474 1474 1473 1472 1470 1468 1466 1463 1461 1458 1455 1452 1450 1448 1446 1445 1445 1445 1444 1444 1444 1444 1443 1442 1442 1442 1442 1443
1508 1514 1515 1509 1511 1509 1508 1506 1508 1511 1515 1517 1512 1492 1473 1474 1473 1472 1471 1470 1468 1466 1463 1460 1457 1454 1451 1448 1445 1443 1441 1440 1440 1440 1439 1439 1438 1438 1437 1437 1437 1437 1437 1437
1506 1512 1512 1507 1503 1505 1507 1505 1505 1508 1511 1510 1502 1487 1476 1474 1473 1471 1469 1468 1466 1463 1460 1457 1453 1450 1447 1443 1441 1438 1437 1436 1436 1435 1435 1434 1433 1432 1432 1432 1432 1432 1432 1432
1506 1510 1510 1507 1503 1503 1501 1500 1501 1502 1499 1499 1488 1484 1473 1471 1471 1469 1467 1465 1463 1460 1457 1454 1450 1446 1443 1439 1436 1434 1433 1432 1431 1431 1430 1429 1429 1428 1427 1427 1426 1427 1427 1427
1506 1509 1509 1506 1500 1500 1498 1493 1494 1493 1491 1489 1484 1478 1468 1468 1467 1465 1463 1462 1459 1456 1454 1451 1447 1443 1439 1436 1433 1431 1429 1428 1427 1427 1426 1425 1424 1424 1423 1422 1422 1422 1422 1422
1507 1510 1510 1507 1503 1498 1493 1483 1484 1484 1481 1481 1479 1471 1466 1466 1463 1461 1459 1458 1455 1453 1450 1447 1444 1440 1436 1433 1430 1428 1426 1425 1424 1423 1422 1421 1421 1420 1419 1418 1417 1417 1417 1417
1506 1508 1511 1510 1506 1499 1477 1474 1474 1476 1473 1472 1469 1465 1463 1462 1459 1457 1455 1454 1452 1449 1447 1444 1440 1436 1434 1431 1428 1426 1424 1422 1421 1419 1419 1418 1417 1416 1415 1414 1414 1413 1413 1413
1499 1504 1510 1511 1507 1493 1476 1471 1472 1474 1470 1465 1465 1462 1460 1459 1457 1453 1451 1450 1448 1446 1443 1441 1438 1435 1432 1429 1426 1424 1422 1420 1418 1417 1416 1415 1414 1413 1412 1411 1410 1410 1410 1410
1498 1501 1507 1508 1501 1490 1471 1468 1467 1470 1469 1461 1460 1458 1458 1458 1459 1452 1448 1447 1445 1442 1440 1438 1435 1432 1430 1427 1424 1422 1419 1417 1416 1414 1413 1412 1411 1410 1409 1408 1408 1407 1407 1407
1500 1502 1503 1504 1500 1484 1469 1467 1467 1473 1465 1458 1456 1455 1455 1455 1453 1450 1446 1444 1442 1440 1438 1435 1433 1430 1428 1425 1423 1420 1418 1416 1414 1412 1411 1409 1408 1407 1407 1406 1405 1405 1404 1404
1491 1496 1498 1498 1496 1481 1464 1465 1466 1462 1457 1456 1454 1453 1452 1450 1448 1446 1444 1442 1440 1437 1435 1433 1430 1428 1426 1424 1421 1419 1417 1414 1412 1410 1408 1407 1406 1405 1404 1403 1402 1402 1402 1401
1483 1480 1480 1479 1471 1462 1460 1458 1457 1457 1455 1454 1452 1451 1449 1447 1445 1444 1442 1440 1438 1436 1434 1431 1429 1426 1425 1423 1420 1417 1415 1413 1411 1409 1407 1405 1404 1403 1402 1401 1400 1399 1399 1399
1475 1473 1474 1472 1462 1458 1457 1455 1455 1454 1453 1451 1450 1449 1447 1445 1443 1441 1440 1438 1436 1434 1432 1429 1427 1425 1423 1422 1420 1417 1415 1412 1410 1407 1406 1404 1402 1401 1400 1399 1398 1398 1397 1396
1468 1469 1469 1465 1458 1455 1452 1452 1451 1451 1450 1448 1447 1446 1445 1443 1441 1439 1437 1435 1434 1432 1430 1428 1426 1424 1422 1420 1418 1416 1414 1411 1408 1406 1404 1403 1402 1400 1398 1398 1397 1396 1395 1395
1462 1463 1463 1458 1453 1453 1451 1450 1449 1448 1447 1446 1444 1442 1441 1440 1438 1437 1435 1433 1432 1430 1428 1426 1424 1422 1420 1418 1416 1414 1412 1410 1408 1405 1404 1402 1401 1399 1398 1397 1396 1395 1395 1394